{"data":{"norad_id":60367,"intl_designator":"2024-138N","name":"STARLINK-32243","alt_names":[],"object_type":"PAYLOAD","status":"ACTIVE","operator":null,"country":"US","launch_date":"2024-08-04","launch_site_code":"AFWTR","launch_vehicle":null,"mission":null,"orbit_class":"UNKNOWN","rcs_meters":null,"size_class":null,"mass_kg":null,"dimensions":null,"purposes":["comms"],"wikipedia_slug":null,"has_3d_model":false,"image_url":null,"decayed_at":null,"tle_current":{"epoch":"2026-05-24T19:50:44.018304Z","epoch_age_seconds":85878,"freshness":"FRESH","line1":"1 60367U 24138N   26144.82689836 -.00001508  00000+0 -38829-4 0  9996","line2":"2 60367  53.1619 316.0157 0000869  60.2392 299.8695 15.30192765102287","mean_motion":15.30192765,"eccentricity":8.69e-5,"inclination_deg":53.1619,"raan_deg":316.0157,"arg_perigee_deg":60.2392,"mean_anomaly_deg":299.8695,"bstar":-3.8829e-5,"rev_number":10228,"period_min":94.105790651807,"perigee_km":474.64111373823,"apogee_km":475.83223008241,"semimajor_km":6853.3736719103,"source":"CELESTRAK","updated_at":"2026-05-25T13:38:19.240569Z"}}}